TimeCST,TemperatureF,Dew PointF,Humidity,Sea Level PressureIn,VisibilityMPH,Wind Direction,Wind SpeedMPH,Gust SpeedMPH,PrecipitationIn,Events,Conditions,WindDirDegrees,DateUTC
12:15 AM,19.4,19.4,100,30.39,2.0,Calm,Calm,-,N/A,,Clear,0,2013-01-04 06:15:00
12:35 AM,19.4,19.4,100,30.39,1.5,Calm,Calm,-,N/A,,Mist,0,2013-01-04 06:35:00
12:55 AM,17.6,17.6,100,30.39,0.2,Calm,Calm,-,N/A,Fog,Light Freezing Fog,0,2013-01-04 06:55:00
1:15 AM,17.6,15.8,93,30.39,0.2,Calm,Calm,-,N/A,Fog,Light Freezing Fog,0,2013-01-04 07:15:00
1:35 AM,17.6,17.6,100,30.39,0.2,Calm,Calm,-,N/A,Fog,Light Freezing Fog,0,2013-01-04 07:35:00
1:55 AM,17.6,17.6,100,30.40,0.2,Calm,Calm,-,N/A,Fog,Light Freezing Fog,0,2013-01-04 07:55:00
2:15 AM,17.6,17.6,100,30.40,0.2,Calm,Calm,-,N/A,Fog,Light Freezing Fog,0,2013-01-04 08:15:00
2:35 AM,17.6,15.8,93,30.40,0.2,Calm,Calm,-,N/A,Fog,Light Freezing Fog,0,2013-01-04 08:35:00
2:55 AM,17.6,15.8,93,30.40,0.2,Calm,Calm,-,N/A,Fog,Light Freezing Fog,0,2013-01-04 08:55:00
3:15 AM,17.6,15.8,93,30.39,0.2,Calm,Calm,-,N/A,Fog,Light Freezing Fog,0,2013-01-04 09:15:00
5:55 AM,17.6,15.8,93,30.41,3.0,Calm,Calm,-,N/A,,Clear,0,2013-01-04 11:55:00
6:15 AM,15.8,14.0,93,30.42,2.0,Calm,Calm,-,N/A,,Clear,0,2013-01-04 12:15:00
6:35 AM,15.8,14.0,93,30.42,5.0,Calm,Calm,-,N/A,,Clear,0,2013-01-04 12:35:00
6:55 AM,12.2,12.2,100,30.42,3.0,Calm,Calm,-,N/A,,Clear,0,2013-01-04 12:55:00
7:15 AM,14.0,12.2,93,30.42,3.0,Calm,Calm,-,N/A,,Clear,0,2013-01-04 13:15:00
7:35 AM,15.8,14.0,93,30.43,3.0,Calm,Calm,-,N/A,,Clear,0,2013-01-04 13:35:00
7:55 AM,15.8,14.0,93,30.43,2.0,Calm,Calm,-,N/A,,Clear,0,2013-01-04 13:55:00
8:15 AM,17.6,17.6,100,30.44,2.5,Calm,Calm,-,N/A,,Clear,0,2013-01-04 14:15:00
8:35 AM,-9999,-9999,N/A,30.45,3.0,Calm,Calm,-,N/A,,Scattered Clouds,0,2013-01-04 14:35:00
8:55 AM,-9999,-9999,N/A,30.45,5.0,Calm,Calm,-,N/A,,Haze,0,2013-01-04 14:55:00
9:15 AM,19.4,19.4,100,30.46,5.0,Calm,Calm,-,N/A,,Overcast,0,2013-01-04 15:15:00
9:35 AM,21.2,21.2,100,30.47,5.0,Calm,Calm,-,N/A,,Overcast,0,2013-01-04 15:35:00
9:55 AM,-9999,-9999,N/A,30.47,5.0,Calm,Calm,-,N/A,,Haze,0,2013-01-04 15:55:00
10:15 AM,26.6,26.6,100,30.47,7.0,Calm,Calm,-,N/A,,Overcast,0,2013-01-04 16:15:00
10:35 AM,26.6,26.6,100,30.48,7.0,Calm,Calm,-,N/A,,Overcast,0,2013-01-04 16:35:00
10:55 AM,28.4,28.4,100,30.46,7.0,Calm,Calm,-,N/A,,Overcast,0,2013-01-04 16:55:00
11:15 AM,28.4,28.4,100,30.45,7.0,Calm,Calm,-,N/A,,Mostly Cloudy,0,2013-01-04 17:15:00
11:35 AM,30.2,30.2,100,30.44,10.0,SW,3.5,-,N/A,,Scattered Clouds,230,2013-01-04 17:35:00
11:55 AM,30.2,30.2,100,30.43,10.0,WSW,3.5,-,N/A,,Clear,240,2013-01-04 17:55:00
12:15 PM,32.0,30.2,93,30.42,10.0,SSW,3.5,-,N/A,,Clear,210,2013-01-04 18:15:00
12:35 PM,33.8,26.6,75,30.41,10.0,Calm,Calm,-,N/A,,Clear,0,2013-01-04 18:35:00
12:55 PM,33.8,23.0,65,30.40,10.0,Calm,Calm,-,N/A,,Clear,0,2013-01-04 18:55:00
1:15 PM,35.6,24.8,65,30.40,10.0,Calm,Calm,-,N/A,,Clear,0,2013-01-04 19:15:00
1:35 PM,33.8,23.0,65,30.40,10.0,ESE,4.6,-,N/A,,Clear,110,2013-01-04 19:35:00
1:55 PM,35.6,26.6,70,30.39,10.0,ESE,3.5,-,N/A,,Clear,110,2013-01-04 19:55:00
2:15 PM,33.8,26.6,75,30.39,10.0,ENE,3.5,-,N/A,,Clear,70,2013-01-04 20:15:00
2:35 PM,33.8,24.8,70,30.39,10.0,Calm,Calm,-,N/A,,Clear,0,2013-01-04 20:35:00
2:55 PM,35.6,24.8,65,30.39,10.0,Calm,Calm,-,N/A,,Clear,0,2013-01-04 20:55:00
3:15 PM,35.6,23.0,60,30.39,10.0,NNW,3.5,-,N/A,,Clear,340,2013-01-04 21:15:00
3:35 PM,35.6,23.0,60,30.40,10.0,Calm,Calm,-,N/A,,Clear,0,2013-01-04 21:35:00
3:55 PM,35.6,23.0,60,30.40,10.0,NW,3.5,-,N/A,,Clear,310,2013-01-04 21:55:00
4:15 PM,35.6,23.0,60,30.40,10.0,Calm,Calm,-,N/A,,Clear,0,2013-01-04 22:15:00
4:35 PM,35.6,24.8,65,30.39,10.0,Calm,Calm,-,N/A,,Clear,0,2013-01-04 22:35:00
4:55 PM,32.0,23.0,69,30.39,10.0,Calm,Calm,-,N/A,,Clear,0,2013-01-04 22:55:00
5:15 PM,30.2,23.0,75,30.39,10.0,SSE,3.5,-,N/A,,Clear,150,2013-01-04 23:15:00
5:35 PM,28.4,23.0,80,30.39,10.0,ESE,4.6,-,N/A,,Clear,110,2013-01-04 23:35:00
5:55 PM,26.6,21.2,80,30.37,10.0,East,6.9,-,N/A,,Clear,80,2013-01-04 23:55:00
6:15 PM,28.4,21.2,74,30.38,10.0,SE,3.5,-,N/A,,Clear,140,2013-01-05 00:15:00
6:35 PM,26.6,21.2,80,30.37,10.0,SSE,4.6,-,N/A,,Clear,150,2013-01-05 00:35:00
6:55 PM,23.0,19.4,86,30.38,10.0,South,3.5,-,N/A,,Clear,170,2013-01-05 00:55:00
7:15 PM,26.6,21.2,80,30.39,10.0,Calm,Calm,-,N/A,,Clear,0,2013-01-05 01:15:00
7:35 PM,26.6,23.0,86,30.38,10.0,Calm,Calm,-,N/A,,Clear,0,2013-01-05 01:35:00
7:55 PM,26.6,23.0,86,30.38,10.0,Calm,Calm,-,N/A,,Clear,0,2013-01-05 01:55:00
8:15 PM,23.0,21.2,93,30.38,7.0,Calm,Calm,-,N/A,,Clear,0,2013-01-05 02:15:00
8:35 PM,24.8,23.0,93,30.38,7.0,Calm,Calm,-,N/A,,Clear,0,2013-01-05 02:35:00
8:55 PM,23.0,23.0,100,30.38,7.0,Calm,Calm,-,N/A,,Clear,0,2013-01-05 02:55:00
9:15 PM,23.0,23.0,100,30.38,7.0,Calm,Calm,-,N/A,,Clear,0,2013-01-05 03:15:00
9:35 PM,21.2,21.2,100,30.38,7.0,Calm,Calm,-,N/A,,Clear,0,2013-01-05 03:35:00
9:55 PM,21.2,21.2,100,30.38,7.0,Calm,Calm,-,N/A,,Clear,0,2013-01-05 03:55:00
10:15 PM,23.0,21.2,93,30.38,7.0,Calm,Calm,-,N/A,,Clear,0,2013-01-05 04:15:00
10:35 PM,21.2,21.2,100,30.38,5.0,Calm,Calm,-,N/A,,Clear,0,2013-01-05 04:35:00
10:55 PM,23.0,23.0,100,30.38,4.0,Calm,Calm,-,N/A,,Clear,0,2013-01-05 04:55:00
11:15 PM,21.2,21.2,100,30.37,5.0,Calm,Calm,-,N/A,,Clear,0,2013-01-05 05:15:00
11:35 PM,21.2,21.2,100,30.37,4.0,Calm,Calm,-,N/A,,Clear,0,2013-01-05 05:35:00
11:55 PM,21.2,21.2,100,30.36,4.0,Calm,Calm,-,N/A,,Clear,0,2013-01-05 05:55:00